Satellite: MAST Catalog number: 31126 Epoch time: 11167.96687905 Element set: 185 Inclination: 097.8948 deg RA of node: 195.2049 deg Eccentricity: 0.0094949 Arg of perigee: 170.6070 deg Mean anomaly: 189.6932 deg Mean motion: 14.53757508 rev/day Decay rate: 1.84e-06 rev/day^2 Epoch rev: 22105 Checksum: 339
Satellite: ISS Catalog number: 25544 Epoch time: 11168.09994693 Element set: 549 Inclination: 051.6453 deg RA of node: 161.1888 deg Eccentricity: 0.0013916 Arg of perigee: 293.6664 deg Mean anomaly: 149.7962 deg Mean motion: 15.64386723 rev/day Decay rate: -7.392e-05 rev/day^2 Epoch rev: 72089 Checksum: 356
/EX
participants (1)
-
Ray Hoad